• In Russia
  • List of Countries
  • For 7 days
  • Water Temperature
  • Satellite Maps
  • Weather Map
  • Weather Widgets
  • user-avatar
    Login

    Hourly Weather Starye Kutushi

    Today, 21 April, Saturday

    Time Temperature Precipitation Wind Pressure Humidity
    00:00 -1°C° 0 mm 4 mps 746 mmHg 78%
    01:00 -1°C° 0 mm 4 mps 746 mmHg 79%
    02:00 0°C° 0 mm 3 mps 746 mmHg 80%
    03:00 0°C° 0 mm 3 mps 746 mmHg 81%
    04:00 0°C° 0 mm 3 mps 746 mmHg 79%
    05:00 0°C° 0 mm 3 mps 746 mmHg 77%
    06:00 0°C° 0 mm 3 mps 746 mmHg 75%
    07:00 +1°C° 0 mm 3 mps 746 mmHg 67%
    08:00 +1°C° 0 mm 3 mps 746 mmHg 59%
    09:00 +2°C° 0 mm 3 mps 746 mmHg 50%
    10:00 +4°C° 0 mm 2 mps 746 mmHg 48%
    11:00 +5°C° 0 mm 2 mps 746 mmHg 45%
    12:00 +6°C° 0 mm 1 mps 745 mmHg 43%
    13:00 +7°C° 0 mm 1 mps 745 mmHg 42%
    14:00 +7°C° 0 mm 1 mps 744 mmHg 40%
    15:00 +8°C° 0 mm 1 mps 744 mmHg 39%
    16:00 +6°C° 0 mm 2 mps 743 mmHg 42%
    17:00 +5°C° 0 mm 3 mps 743 mmHg 45%
    18:00 +5°C° 0 mm 3 mps 742 mmHg 48%
    19:00 +5°C° 0 mm 4 mps 741 mmHg 49%
    20:00 +3°C° 0 mm 5 mps 741 mmHg 51%
    21:00 +3°C° 0 mm 6 mps 740 mmHg 52%
    22:00 +3°C° 0.4 mm 7 mps 739 mmHg 55%
    23:00 +2°C° 0.4 mm 8 mps 738 mmHg 58%

    Tomorrow, 22 April, Sunday

    Time Temperature Precipitation Wind Pressure Humidity
    00:00 +1°C° 0.4 mm 9 mps 737 mmHg 61%
    01:00 +1°C° 0.1 mm 9 mps 736 mmHg 63%
    02:00 +1°C° 0.1 mm 9 mps 735 mmHg 64%
    03:00 +2°C° 0.1 mm 9 mps 734 mmHg 66%
    04:00 +2°C° 0 mm 10 mps 733 mmHg 68%
    05:00 +2°C° 0 mm 10 mps 732 mmHg 69%
    06:00 +3°C° 0 mm 10 mps 731 mmHg 71%
    07:00 +3°C° 0.5 mm 10 mps 731 mmHg 73%
    08:00 +5°C° 0.5 mm 10 mps 730 mmHg 76%
    09:00 +5°C° 0.5 mm 10 mps 730 mmHg 78%
    10:00 +5°C° 1.3 mm 10 mps 730 mmHg 81%
    11:00 +5°C° 1.3 mm 9 mps 730 mmHg 84%
    12:00 +5°C° 1.3 mm 9 mps 729 mmHg 87%
    13:00 +6°C° 0.8 mm 8 mps 729 mmHg 83%
    14:00 +8°C° 0.8 mm 7 mps 730 mmHg 79%
    15:00 +8°C° 0.8 mm 7 mps 730 mmHg 75%
    16:00 +8°C° 0.1 mm 7 mps 730 mmHg 74%
    17:00 +7°C° 0.1 mm 6 mps 730 mmHg 72%
    18:00 +7°C° 0.1 mm 6 mps 731 mmHg 70%
    19:00 +5°C° 0 mm 6 mps 731 mmHg 74%
    20:00 +3°C° 0 mm 6 mps 732 mmHg 77%
    21:00 +2°C° 0 mm 6 mps 733 mmHg 81%
    22:00 +1°C° 0 mm 5 mps 733 mmHg 81%
    23:00 +1°C° 0 mm 5 mps 733 mmHg 80%

    Day after tomorrow, 23 April, Monday

    Time Temperature Precipitation Wind Pressure Humidity
    00:00 0°C° 0 mm 5 mps 734 mmHg 80%
    01:00 0°C° 0 mm 5 mps 734 mmHg 80%
    02:00 -1°C° 0 mm 5 mps 734 mmHg 80%
    03:00 -2°C° 0 mm 6 mps 735 mmHg 81%
    04:00 -2°C° 0 mm 6 mps 735 mmHg 80%
    05:00 -2°C° 0 mm 6 mps 735 mmHg 78%
    06:00 -2°C° 0 mm 7 mps 736 mmHg 77%
    07:00 -2°C° 0 mm 7 mps 736 mmHg 74%
    08:00 -2°C° 0 mm 7 mps 737 mmHg 71%
    09:00 -1°C° 0 mm 7 mps 737 mmHg 68%
    10:00 -1°C° 0.1 mm 7 mps 738 mmHg 67%
    11:00 0°C° 0.1 mm 7 mps 738 mmHg 65%
    12:00 0°C° 0.1 mm 7 mps 739 mmHg 63%
    13:00 +1°C° 0.1 mm 6 mps 739 mmHg 63%
    14:00 +1°C° 0.1 mm 6 mps 740 mmHg 64%
    15:00 +1°C° 0.1 mm 6 mps 740 mmHg 64%
    16:00 +1°C° 0.1 mm 6 mps 740 mmHg 67%
    17:00 0°C° 0.1 mm 5 mps 741 mmHg 70%
    18:00 0°C° 0.1 mm 5 mps 741 mmHg 72%
    19:00 -1°C° 0 mm 4 mps 741 mmHg 76%
    20:00 -2°C° 0 mm 4 mps 742 mmHg 80%
    21:00 -1°C° 0 mm 3 mps 742 mmHg 84%
    22:00 -2°C° 0 mm 3 mps 742 mmHg 85%
    23:00 -3°C° 0 mm 4 mps 742 mmHg 86%

    24 April, Tuesday

    Time Temperature Precipitation Wind Pressure Humidity
    00:00 -3°C° 0 mm 4 mps 743 mmHg 87%
    01:00 -3°C° 0 mm 4 mps 743 mmHg 87%
    02:00 -3°C° 0 mm 4 mps 743 mmHg 87%
    03:00 -3°C° 0 mm 4 mps 743 mmHg 86%
    04:00 -2°C° 0.1 mm 4 mps 743 mmHg 85%
    05:00 -2°C° 0.1 mm 5 mps 744 mmHg 83%
    06:00 -2°C° 0.1 mm 5 mps 744 mmHg 82%
    07:00 -1°C° 0.1 mm 5 mps 744 mmHg 79%
    08:00 -2°C° 0.1 mm 6 mps 745 mmHg 76%
    09:00 -2°C° 0.1 mm 6 mps 745 mmHg 73%
    10:00 -1°C° 0.1 mm 6 mps 745 mmHg 71%
    11:00 -1°C° 0.1 mm 6 mps 746 mmHg 68%
    12:00 -1°C° 0.1 mm 7 mps 746 mmHg 66%
    13:00 -1°C° 0.1 mm 6 mps 746 mmHg 65%
    14:00 -1°C° 0.1 mm 6 mps 746 mmHg 64%
    15:00 -1°C° 0.1 mm 6 mps 747 mmHg 63%
    16:00 -1°C° 0 mm 6 mps 747 mmHg 65%
    17:00 0°C° 0 mm 5 mps 747 mmHg 67%
    18:00 -1°C° 0 mm 4 mps 748 mmHg 68%
    19:00 -2°C° 0 mm 4 mps 748 mmHg 72%
    20:00 -1°C° 0 mm 3 mps 748 mmHg 77%
    21:00 -2°C° 0 mm 3 mps 748 mmHg 81%
    22:00 -2°C° 0 mm 3 mps 748 mmHg 82%
    23:00 -2°C° 0 mm 3 mps 749 mmHg 83%

    25 April, Wednesday

    Time Temperature Precipitation Wind Pressure Humidity
    00:00 -2°C° 0 mm 3 mps 749 mmHg 84%
    01:00 -2°C° 0.1 mm 3 mps 749 mmHg 84%
    02:00 -3°C° 0.1 mm 4 mps 749 mmHg 85%
    03:00 -2°C° 0.1 mm 4 mps 749 mmHg 85%
    04:00 -2°C° 0 mm 4 mps 750 mmHg 84%
    05:00 -2°C° 0 mm 4 mps 750 mmHg 83%
    06:00 -2°C° 0 mm 4 mps 750 mmHg 82%
    07:00 -1°C° 0 mm 4 mps 750 mmHg 73%
    08:00 +1°C° 0 mm 4 mps 751 mmHg 64%
    09:00 +3°C° 0 mm 4 mps 751 mmHg 56%
    10:00 +3°C° 0 mm 4 mps 751 mmHg 54%
    11:00 +4°C° 0 mm 4 mps 751 mmHg 52%
    12:00 +5°C° 0 mm 4 mps 751 mmHg 49%
    13:00 +5°C° 0 mm 3 mps 751 mmHg 49%
    14:00 +5°C° 0 mm 3 mps 751 mmHg 49%
    15:00 +7°C° 0 mm 3 mps 751 mmHg 49%
    16:00 +6°C° 0 mm 2 mps 751 mmHg 53%
    17:00 +6°C° 0 mm 2 mps 751 mmHg 56%
    18:00 +5°C° 0 mm 2 mps 751 mmHg 59%
    19:00 +4°C° 0 mm 2 mps 751 mmHg 62%
    20:00 +3°C° 0 mm 2 mps 751 mmHg 65%
    21:00 +1°C° 0 mm 3 mps 751 mmHg 67%
    22:00 +1°C° 0 mm 3 mps 751 mmHg 68%
    23:00 +1°C° 0 mm 3 mps 750 mmHg 69%

    26 April, Thursday

    Time Temperature Precipitation Wind Pressure Humidity
    00:00 0°C° 0 mm 3 mps 750 mmHg 70%
    01:00 -1°C° 0 mm 4 mps 750 mmHg 70%
    02:00 0°C° 0 mm 4 mps 750 mmHg 70%
    03:00 0°C° 0 mm 4 mps 749 mmHg 69%
    04:00 0°C° 0 mm 5 mps 749 mmHg 69%
    05:00 +1°C° 0 mm 5 mps 749 mmHg 68%
    06:00 +1°C° 0 mm 5 mps 749 mmHg 68%
    07:00 +3°C° 0 mm 5 mps 749 mmHg 65%
    08:00 +5°C° 0 mm 5 mps 748 mmHg 62%
    09:00 +7°C° 0 mm 5 mps 748 mmHg 60%
    10:00 +7°C° 0 mm 5 mps 748 mmHg 57%
    11:00 +8°C° 0 mm 5 mps 748 mmHg 55%
    12:00 +9°C° 0 mm 5 mps 748 mmHg 52%
    13:00 +9°C° 0 mm 5 mps 748 mmHg 53%
    14:00 +10°C° 0 mm 4 mps 748 mmHg 54%
    15:00 +10°C° 0 mm 4 mps 747 mmHg 55%
    16:00 +9°C° 0 mm 3 mps 748 mmHg 60%
    17:00 +9°C° 0 mm 3 mps 748 mmHg 64%
    18:00 +8°C° 0 mm 2 mps 748 mmHg 68%
    19:00 +7°C° 0 mm 2 mps 748 mmHg 73%
    20:00 +6°C° 0 mm 2 mps 748 mmHg 78%
    21:00 +5°C° 0 mm 2 mps 749 mmHg 82%
    22:00 +5°C° 0 mm 2 mps 749 mmHg 84%
    23:00 +5°C° 0 mm 2 mps 749 mmHg 85%
    Show more